Location: ??????????
(54.8537°N, 38.8755°E)
Time: 22:56:15
(UTC+00:00)

Transit 2A Rocket - Pass Details

Date: 13 September 2024
Orbit: 582 x 908 km, 66.7° (Epoch: 09 October)

Event Time Altitude Azimuth Distance (km) Brightness Sun altitude
Exits shadow 21:02:15 26° 74° (ENE) 1,698 6.8 -31.7°
Drops below altitude 10° 21:05:21 10° 52° (NE) 2,603 8.1 -31.7°
Sets 21:08:03 0° 44° (NE) 3,538 9.0 -31.7°
